EW8178 Weather Reports


Display with metric or nautical units.
time (UTC)temp
F
wind
direction
speed
MPH
gust
MPH
rain 1hr
in
rain 24hr
in
rain mn
in
humidity
%
barometer
mb
20260906043015 57 80 1.0 7.0 0.00 0.00 0.00 86 1013.1
20260906041521 57 76 2.0 8.0 0.00 0.00 0.00 86 1013.1
20260906040011 57 117 1.0 12.0 0.00 0.00 0.00 86 1012.9
20260906034510 57 97 2.0 9.0 0.00 0.00 0.00 86 1012.8
20260906033006 58 66 1.0 6.0 0.00 0.00 0.00 86 1012.7
20260906031504 58 78 1.0 6.0 0.00 0.00 0.00 85 1012.6
20260906030101 58 101 2.0 7.0 0.00 0.00 0.00 85 1012.5
20260906024615 58 111 3.0 9.0 0.00 0.00 0.00 84 1012.5
20260906023058 59 107 2.0 8.0 0.00 0.00 0.00 84 1012.3
20260906021556 59 55 2.0 7.0 0.00 0.00 0.00 83 1012.3
20260906020026 59 84 1.0 4.0 0.00 0.00 0.00 82 1012.3
20260906014526 60 67 1.0 4.0 0.00 0.00 0.00 82 1012.3
20260906013027 60 95 0.0 4.0 0.00 0.00 0.00 81 1012.3
20260906011520 60 95 0.0 3.0 0.00 0.00 0.00 81 1012.3
20260906010016 60 94 1.0 4.0 0.00 0.00 0.00 82 1012.3
20260906004517 60 81 0.0 7.0 0.00 0.00 0.00 82 1012.2
20260906003014 60 98 0.0 4.0 0.00 0.00 0.00 83 1012.1
20260906001511 60 94 0.0 6.0 0.00 0.00 0.00 83 1012.1
20260906000011 60 107 1.0 3.0 0.00 0.00 0.00 83 1012.1
20260905234507 60 116 0.0 5.0 0.00 0.00 0.00 83 1012.1
20260905233012 61 76 0.0 6.0 0.00 0.00 0.00 83 1011.9
20260905231600 61 122 1.0 7.0 0.00 0.00 0.00 82 1012.0
20260905230128 62 96 0.0 7.0 0.00 0.00 0.00 81 1011.8
20260905224559 62 103 1.0 7.0 0.00 0.00 0.00 81 1011.7
20260905223057 62 91 1.0 6.0 0.00 0.00 0.00 80 1011.7
20260905221557 62 55 0.0 3.0 0.00 0.00 0.00 80 1011.8
20260905220053 62 53 0.0 3.0 0.00 0.00 0.00 80 1011.7
20260905214551 62 62 1.0 3.0 0.00 0.00 0.00 79 1011.5
20260905213051 62 88 1.0 6.0 0.00 0.00 0.00 79 1011.6
20260905211554 62 61 0.0 4.0 0.00 0.00 0.00 79 1011.4
20260905210047 62 113 1.0 6.0 0.00 0.00 0.00 80 1011.4
20260905204545 62 85 0.0 6.0 0.00 0.00 0.00 81 1011.5
20260905203054 61 39 0.0 3.0 0.00 0.00 0.00 82 1011.3
20260905201542 62 35 0.0 3.0 0.00 0.00 0.00 82 1011.4
20260905200040 62 74 0.0 2.0 0.00 0.00 0.00 82 1011.1
20260905194535 62 61 1.0 4.0 0.00 0.00 0.00 82 1010.9
20260905193042 63 101 1.0 3.0 0.00 0.00 0.00 82 1010.8
20260905191532 63 16 0.0 2.0 0.00 0.00 0.00 81 1010.8
20260905190030 63 52 0.0 6.0 0.00 0.00 0.00 80 1010.6
20260905184525 63 91 1.0 6.0 0.00 0.00 0.00 79 1010.3
20260905183023 64 103 1.0 5.0 0.00 0.00 0.00 78 1010.2
20260905181524 64 89 1.0 6.0 0.00 0.00 0.00 78 1009.9
20260905180020 64 123 1.0 7.0 0.00 0.00 0.00 77 1009.9
20260905174515 64 128 2.0 8.0 0.00 0.00 0.00 77 1009.7
20260905173012 65 130 2.0 8.0 0.00 0.00 0.00 77 1009.4
20260905171511 66 86 2.0 10.0 0.00 0.00 0.00 76 1009.3
20260905170009 66 102 1.0 7.0 0.00 0.00 0.00 77 1009.3
20260905164534 67 81 2.0 6.0 0.00 0.00 0.00 76 1008.9
20260905163031 68 88 3.0 9.0 0.00 0.00 0.00 75 1008.6
20260905161525 68 127 1.0 9.0 0.00 0.00 0.00 75 1008.5
20260905160028 69 99 2.0 11.0 0.00 0.00 0.00 74 1008.4
20260905154520 70 116 2.0 9.0 0.00 0.00 0.00 73 1008.5
20260905153016 72 68 1.0 4.0 0.00 0.00 0.00 69 1008.4
20260905151600 74 109 2.0 8.0 0.00 0.00 0.00 64 1008.1
20260905150112 75 90 1.0 7.0 0.00 0.00 0.00 61 1008.0
20260905144554 76 202 2.0 9.0 0.00 0.00 0.00 60 1007.7
20260905143055 76 150 2.0 9.0 0.00 0.00 0.00 56 1007.6
20260905141554 78 135 1.0 6.0 0.00 0.00 0.00 54 1007.7
20260905140058 79 146 0.0 6.0 0.00 0.00 0.00 56 1007.8
20260905134555 79 130 0.0 4.0 0.00 0.00 0.00 52 1007.8
20260905133053 80 277 0.0 4.0 0.00 0.00 0.00 53 1007.7
20260905131555 81 279 2.0 5.0 0.00 0.00 0.00 52 1007.7
20260905130055 82 208 1.0 4.0 0.00 0.00 0.00 50 1007.6
20260905124559 82 198 1.0 6.0 0.00 0.00 0.00 51 1007.8
20260905123054 83 270 1.0 6.0 0.00 0.00 0.00 52 1007.9
20260905121530 84 214 1.0 4.0 0.00 0.00 0.00 49 1007.8
20260905120029 84 259 1.0 4.0 0.00 0.00 0.00 50 1007.8
20260905114524 82 255 0.0 7.0 0.00 0.00 0.00 53 1008.0
20260905113024 82 262 0.0 4.0 0.00 0.00 0.00 52 1007.8
20260905111527 82 252 1.0 6.0 0.00 0.00 0.00 55 1007.9
20260905110021 83 251 1.0 6.0 0.00 0.00 0.00 51 1007.8
20260905104515 81 256 0.0 7.0 0.00 0.00 0.00 54 1007.7
20260905103011 79 267 1.0 4.0 0.00 0.00 0.00 59 1007.9
20260905101507 77 250 0.0 5.0 0.00 0.00 0.00 64 1007.9
20260905100007 77 244 1.0 4.0 0.00 0.00 0.00 61 1007.9
20260905094505 77 244 1.0 3.0 0.00 0.00 0.00 60 1007.9
20260905093003 76 263 0.0 4.0 0.00 0.00 0.00 61 1007.9
20260905091501 76 247 1.0 4.0 0.00 0.00 0.00 56 1008.0
20260905090003 77 240 0.0 2.0 0.00 0.00 0.00 56 1007.9
20260905084601 77 249 1.0 4.0 0.00 0.00 0.00 55 1008.0
20260905083057 77 270 1.0 5.0 0.00 0.00 0.00 55 1007.8
20260905081556 77 328 0.0 3.0 0.00 0.00 0.00 56 1007.8
20260905080053 76 335 1.0 6.0 0.00 0.00 0.00 51 1007.6
20260905074551 74 245 1.0 3.0 0.00 0.00 0.00 54 1007.5
20260905073048 72 321 0.0 4.0 0.00 0.00 0.00 60 1007.5
20260905071548 70 317 0.0 2.0 0.00 0.00 0.00 62 1007.3
20260905070046 70 231 0.0 4.0 0.00 0.00 0.00 60 1007.3
20260905064646 70 273 1.0 4.0 0.00 0.00 0.00 64 1007.2
20260905063042 69 259 1.0 4.0 0.00 0.00 0.00 66 1007.1
20260905061547 67 245 1.0 5.0 0.00 0.00 0.00 68 1007.0
20260905060041 66 232 2.0 8.0 0.00 0.00 0.00 68 1007.1
20260905054540 64 333 0.0 3.0 0.00 0.00 0.00 67 1007.2
20260905053038 62 286 0.0 4.0 0.00 0.00 0.00 69 1007.1
20260905051538 61 320 1.0 4.0 0.00 0.00 0.00 68 1007.2
20260905050037 61 318 1.0 5.0 0.00 0.00 0.00 70 1007.2
20260905044543 61 5 1.0 4.0 0.00 0.00 0.00 67 1006.9